GFSSW_850_rhum_273.txt.gz
RH
31 29 26 22 20 18 16 14 12 11 10 8 7 7 5 3 3 4 11 18 16 17 19 19 20 21 22 35 25 24 61 63 39 33 34 25 30 29 30 30 35 35 40 40 40
36 33 30 28 24 20 17 15 13 11 10 8 7 7 5 3 3 4 18 16 15 16 18 19 19 18 20 26 23 40 39 25 20 23 27 27 29 34 27 24 32 36 39 39 39
40 37 34 31 27 22 19 16 14 11 9 8 7 7 5 5 4 10 17 18 15 18 19 19 18 17 20 21 22 33 28 20 35 23 20 25 32 34 25 32 34 38 38 38 38
42 39 36 32 28 24 20 17 14 10 8 7 7 7 6 6 21 13 14 16 17 19 19 18 16 17 24 25 24 30 26 20 32 22 30 24 24 24 24 26 33 34 35 37 38
42 40 37 32 28 24 20 16 13 8 7 6 6 6 6 14 10 13 12 13 17 18 17 17 15 18 27 29 28 30 29 26 27 25 21 22 25 25 25 26 30 32 33 34 35
39 39 36 32 28 22 19 16 9 8 7 6 6 6 7 22 11 12 10 10 17 18 16 15 15 20 28 30 35 35 26 28 30 21 23 24 29 24 25 26 28 30 31 32 32
36 36 36 32 27 21 17 13 9 8 6 6 6 6 8 8 13 12 10 10 17 16 15 14 14 16 17 43 26 34 37 34 30 29 27 24 31 33 24 25 27 28 30 32 32
34 32 34 32 26 20 17 10 11 8 6 6 6 6 6 9 11 12 10 12 15 15 13 14 14 20 22 26 35 37 45 65 36 34 30 36 44 31 24 26 28 29 32 31 31
33 29 30 31 25 18 12 11 14 8 7 6 8 10 21 12 10 10 8 10 11 11 12 14 13 20 24 29 40 42 54 53 45 36 40 66 70 32 26 28 30 29 31 32 33
31 28 27 28 24 17 12 15 16 8 8 7 21 28 11 11 9 9 8 9 9 11 12 12 17 29 30 42 56 50 61 56 58 34 68 62 65 34 36 29 31 32 30 34 35
31 26 24 26 21 15 19 22 28 19 18 14 10 11 10 9 8 7 8 8 8 10 15 12 25 31 33 32 32 36 47 50 49 37 43 40 58 57 55 56 32 33 32 35 36
32 26 23 24 17 15 23 25 19 18 19 16 7 12 8 8 7 7 7 8 8 11 12 16 23 21 20 19 30 28 39 42 29 32 25 35 54 59 69 54 34 33 34 35 42
33 27 22 22 15 29 25 20 17 17 18 13 12 10 7 7 8 8 7 7 9 11 11 18 21 20 18 23 27 26 30 24 24 21 28 29 45 46 44 33 35 30 34 34 39
34 29 23 20 28 30 25 18 17 17 26 15 12 9 5 5 7 8 6 7 7 11 11 14 17 17 17 17 25 46 25 21 23 28 37 29 58 65 58 48 37 36 35 34 39
34 30 24 24 26 24 26 24 18 18 33 8 8 6 5 6 6 8 6 6 8 11 12 14 18 18 19 15 22 28 30 24 24 27 30 49 74 79 52 51 45 36 33 34 37
32 31 26 23 23 22 27 22 19 26 29 9 6 5 5 5 6 6 6 6 7 10 11 12 10 15 16 9 9 12 13 30 38 37 43 40 58 74 69 46 46 32 25 31 36
29 30 27 21 20 33 27 24 30 30 7 7 8 5 6 7 6 8 9 9 12 13 17 14 12 12 11 12 10 13 16 42 54 69 55 40 40 48 42 39 38 35 21 28 36
26 28 23 20 23 28 32 32 36 14 11 6 7 7 7 6 7 8 10 11 9 11 15 19 19 13 13 13 14 14 15 37 53 55 41 38 43 39 28 25 24 17 20 29 36
26 26 21 19 27 26 34 36 27 17 6 7 7 8 8 6 6 7 10 10 9 10 14 15 17 10 10 11 14 15 19 13 26 36 50 37 28 21 26 34 34 20 20 24 36
30 26 18 19 38 28 36 33 18 10 9 8 9 7 8 7 7 8 11 9 8 7 8 10 14 12 11 10 11 11 12 18 23 48 48 43 44 39 33 49 52 28 22 26 30
34 47 29 31 36 30 37 24 13 10 10 10 10 9 8 7 7 8 9 7 7 7 8 8 11 13 9 12 12 12 13 12 24 45 56 53 67 37 30 34 34 26 23 28 34
44 46 29 30 32 28 28 19 11 10 9 8 9 10 11 9 8 9 9 8 5 6 8 9 9 15 12 7 7 7 9 11 26 21 34 34 36 20 18 18 17 23 25 26 30
60 38 28 30 39 30 21 15 13 11 10 8 9 8 8 12 11 9 8 6 5 8 13 8 13 17 16 11 7 8 8 6 9 14 18 21 29 16 15 15 16 20 28 31 31
67 46 29 30 28 26 21 16 14 10 9 7 9 8 8 12 12 11 8 6 6 8 5 7 10 14 18 16 10 11 9 8 8 13 15 17 19 15 17 22 14 37 32 30 37
63 40 42 50 33 29 22 19 17 12 7 7 12 10 10 13 15 10 9 9 8 7 6 8 11 13 12 9 7 8 8 8 10 9 11 13 15 17 22 25 14 15 31 29 39
67 52 52 52 43 43 32 21 19 16 11 10 12 9 10 16 15 15 11 15 13 10 9 9 14 14 15 10 10 10 9 8 7 7 9 7 9 14 17 14 16 14 26 37 37
70 60 60 52 46 40 26 18 17 13 10 9 7 11 12 13 8 8 8 10 12 16 14 13 13 17 19 16 13 14 10 9 7 7 8 12 21 14 17 18 19 17 14 26 32

GFSSW_850_rhum_276.txt.gz
RH
31 29 27 26 23 20 18 16 14 12 9 7 6 6 5 3 2 5 13 20 19 16 18 19 19 20 23 24 27 32 54 56 46 36 34 26 31 36 38 43 42 42 44 52 60
36 32 30 28 26 23 21 19 15 12 10 7 6 6 5 3 2 7 16 20 18 15 16 19 18 18 23 28 29 41 54 42 32 30 32 29 31 33 40 42 42 42 42 53 58
38 35 31 29 27 24 22 20 17 13 10 7 6 6 5 3 4 12 16 19 17 15 17 19 18 18 21 26 31 35 40 34 21 28 27 29 32 30 36 44 42 42 42 52 57
38 37 33 30 27 24 22 21 17 12 8 6 6 6 5 4 11 13 13 17 16 17 17 19 16 20 27 31 26 35 31 31 29 28 29 33 32 30 34 39 41 39 40 50 53
37 36 34 30 26 23 21 20 17 10 8 6 6 6 5 6 10 12 13 14 16 18 18 18 18 24 32 30 30 37 32 30 30 32 34 28 30 31 38 40 39 39 39 40 40
35 33 33 31 26 22 20 18 15 10 8 6 6 6 6 10 12 12 12 12 13 18 18 17 19 20 25 24 30 34 32 29 31 32 41 39 32 30 36 36 36 37 38 38 39
34 31 30 30 26 21 18 17 11 10 8 6 7 6 6 5 13 13 11 9 10 17 16 15 15 20 18 30 30 32 39 39 41 39 50 34 43 46 34 33 34 35 36 35 37
33 29 28 28 26 21 16 13 11 12 7 7 7 6 4 7 11 12 11 10 13 17 16 13 15 19 25 29 33 38 45 56 43 40 45 39 55 51 32 30 32 32 33 34 34
33 29 26 26 26 20 14 12 15 9 8 7 9 10 6 8 10 11 9 10 14 15 14 12 16 25 27 38 43 44 43 55 48 40 38 49 62 52 39 30 31 31 31 32 32
33 29 25 24 25 17 14 16 16 11 11 7 19 26 9 10 11 10 9 9 11 11 11 12 20 32 35 47 54 42 52 44 55 47 41 59 60 52 43 36 42 33 32 32 32
34 29 25 22 23 14 23 25 24 21 20 6 9 15 10 11 10 9 9 9 10 9 15 14 25 28 30 33 36 38 48 46 41 38 48 53 48 48 50 43 43 43 36 33 33
34 30 25 21 20 14 24 22 19 20 20 17 16 16 8 9 11 8 8 8 8 11 12 16 24 24 21 31 33 39 48 48 36 35 40 56 60 46 49 49 34 37 45 36 36
33 31 25 20 18 27 26 25 20 19 20 17 11 9 8 8 9 7 8 8 10 11 12 18 16 20 21 26 31 31 45 40 36 36 38 50 56 56 46 50 35 38 40 40 39
32 31 27 19 23 28 26 23 18 18 31 22 13 9 8 7 6 8 7 8 9 11 12 14 12 20 24 28 28 31 26 27 26 35 42 40 44 61 52 50 43 35 38 45 44
30 30 29 26 22 21 24 21 18 18 23 11 14 7 6 5 7 7 7 7 10 9 12 14 19 22 23 23 23 28 23 23 25 34 40 44 50 55 51 45 34 36 31 39 44
26 29 29 27 22 30 21 21 21 28 31 13 7 7 7 6 6 7 7 7 7 8 10 14 10 16 24 20 18 23 28 31 46 39 41 39 48 52 47 31 32 32 30 36 45
22 27 28 26 20 27 28 25 32 36 16 8 8 7 7 7 7 7 9 9 11 13 14 13 14 15 17 21 20 21 33 44 50 61 41 45 38 40 33 33 37 35 28 29 37
19 24 26 22 20 25 31 32 34 21 17 9 8 7 8 8 8 10 11 12 10 13 18 17 20 21 20 19 20 18 24 44 42 52 43 41 43 34 30 27 27 28 24 25 38
18 22 23 18 22 26 33 43 34 28 11 12 9 8 8 7 7 9 12 13 10 12 14 18 18 11 11 13 14 16 19 22 41 44 44 43 35 27 31 31 29 27 32 36 44
21 25 19 18 36 30 44 49 30 16 14 14 12 10 11 9 7 8 12 11 10 10 11 12 15 10 10 12 14 15 16 17 32 42 47 42 48 44 31 35 29 26 28 38 42
27 40 35 20 39 35 53 47 24 15 12 13 13 11 9 8 8 9 10 9 9 8 11 12 12 11 11 14 15 11 14 19 29 43 52 45 52 43 32 37 39 30 22 32 41
36 56 37 37 39 43 46 30 21 19 14 15 12 10 10 10 9 9 9 9 7 8 9 10 15 14 11 10 9 10 10 16 22 20 44 43 40 22 30 31 32 33 33 34 40
49 43 26 33 50 50 39 28 21 20 17 14 14 11 9 10 12 10 9 7 6 10 11 11 15 18 14 12 10 8 8 12 19 21 20 25 33 21 20 25 30 34 32 42 43
56 76 41 33 31 40 37 33 25 15 14 12 12 10 10 10 12 12 9 8 7 10 9 10 15 15 17 13 12 12 10 8 11 15 16 22 17 14 21 34 28 32 34 37 35
62 65 57 74 62 62 54 41 40 29 16 12 10 9 11 11 14 14 10 10 10 7 7 10 12 11 14 13 10 10 9 10 10 10 11 11 19 16 23 39 37 34 35 34 39
65 71 66 66 58 55 56 53 39 28 21 21 11 10 9 12 13 15 11 13 11 9 9 12 10 11 10 12 14 10 11 10 10 9 9 14 14 15 24 22 39 38 39 31 27
77 70 73 68 67 63 60 60 53 30 18 17 16 10 10 11 11 11 11 9 12 12 14 13 13 18 12 14 16 16 15 24 38 38 32 46 36 40 48 43 36 28 36 31 24

GFSSW_850_rhum_279.txt.gz
RH
33 32 31 29 26 23 21 18 15 12 10 7 6 6 5 3 3 6 16 19 20 16 17 19 20 26 25 27 30 33 57 49 42 40 38 35 41 44 43 46 47 47 56 58 62
37 34 33 31 28 26 24 20 17 13 10 7 6 6 4 3 3 9 17 18 20 16 16 18 18 21 25 26 28 43 51 45 36 32 33 34 39 43 44 44 46 52 59 60 67
38 36 34 33 30 27 25 21 18 13 10 7 6 5 4 3 4 12 15 17 19 16 16 17 17 21 26 28 30 36 43 38 33 34 30 34 38 42 44 49 46 62 65 64 67
37 35 33 33 31 28 25 21 19 14 9 7 6 5 4 4 9 13 12 17 17 15 18 17 19 24 32 32 30 37 34 32 35 32 32 35 34 42 41 44 45 54 55 63 65
36 33 32 31 31 29 24 21 18 13 8 8 6 5 5 4 9 13 13 16 17 16 18 18 20 24 30 29 32 43 36 33 34 33 32 31 35 41 42 41 44 54 58 57 55
36 32 30 29 29 27 23 20 17 10 9 8 6 6 5 6 13 13 12 14 15 16 18 17 19 20 26 28 32 36 36 36 37 38 37 35 38 38 44 39 42 50 54 53 53
35 32 29 27 26 26 22 18 15 9 10 7 6 6 6 5 12 13 12 12 12 16 18 15 14 22 24 34 34 34 40 40 42 42 40 31 46 46 42 40 40 41 46 50 53
35 32 29 26 25 24 18 16 11 12 9 7 7 6 4 8 14 12 12 10 10 13 17 14 19 19 25 31 34 40 46 52 41 45 42 41 53 46 40 40 40 39 40 43 46
35 32 29 25 23 21 15 15 15 12 8 7 7 9 5 7 11 11 10 10 14 16 14 13 17 25 29 38 42 45 51 48 49 43 41 42 56 47 36 36 39 39 38 38 38
36 32 29 25 22 16 20 22 18 17 14 9 13 27 8 12 11 11 9 10 12 12 12 13 23 34 39 42 41 42 50 49 50 42 40 43 50 50 42 40 35 36 35 37 36
36 33 29 25 21 16 27 28 25 25 24 16 7 13 11 10 12 10 10 10 10 10 13 18 28 33 31 34 34 42 40 32 40 38 46 44 40 45 47 49 45 34 33 34 34
34 33 29 24 19 16 29 28 34 40 34 16 16 16 9 10 11 11 9 9 10 12 12 16 20 22 24 30 31 41 46 46 39 36 43 52 51 42 50 50 45 47 36 33 35
32 32 29 24 18 30 28 28 29 26 25 18 14 10 7 9 9 9 8 8 10 11 12 15 15 23 29 33 34 41 43 45 35 39 42 58 57 55 46 47 46 39 40 34 34
28 30 30 23 21 23 28 26 22 19 30 17 16 9 8 9 7 8 8 8 10 12 13 13 12 13 26 31 29 32 33 33 37 40 49 40 57 46 51 52 52 40 38 43 34
26 27 29 28 26 21 26 24 19 19 20 11 14 9 8 7 7 8 8 8 11 11 12 13 17 20 26 27 27 28 27 30 33 38 40 46 50 50 52 48 44 42 37 40 40
28 25 27 26 24 28 25 20 20 26 23 14 12 10 8 7 6 8 8 7 8 9 10 12 9 16 22 21 24 25 30 36 45 42 39 39 43 41 50 39 32 36 34 35 43
31 21 23 26 23 23 25 24 29 31 14 11 10 8 8 8 7 8 10 10 12 14 12 13 13 16 21 28 25 26 30 38 33 47 37 48 42 39 28 35 34 37 31 30 38
32 19 19 24 23 22 28 32 30 15 20 13 8 8 10 8 8 9 12 13 10 14 19 18 18 20 21 24 30 29 30 36 30 43 38 42 43 30 29 28 26 26 27 29 37
31 17 19 21 21 21 32 44 32 26 18 16 10 9 8 8 8 11 13 12 12 14 14 21 18 13 14 18 20 25 23 24 49 51 45 44 39 30 31 30 32 28 31 32 28
34 18 25 33 23 26 40 44 35 24 15 14 12 9 10 9 8 12 14 12 11 12 10 12 15 12 10 14 14 17 19 23 36 44 44 46 44 40 29 31 31 32 30 34 39
24 30 40 29 37 31 45 48 33 20 15 18 14 14 10 9 9 10 12 11 10 11 11 14 13 12 10 13 18 16 18 27 35 42 47 40 46 41 33 32 29 31 26 30 39
30 42 39 43 42 56 51 42 24 22 17 16 16 16 12 10 9 9 9 10 9 10 12 12 16 15 12 11 11 10 13 21 20 20 46 41 34 23 31 28 28 22 21 24 30
51 42 42 45 56 56 44 34 26 26 22 16 15 13 11 10 11 10 10 7 8 10 12 13 16 17 14 13 11 8 11 18 21 28 46 35 26 22 27 29 28 24 21 24 27
58 68 48 39 44 44 45 41 33 28 21 16 15 13 12 10 12 10 11 8 9 9 10 12 18 16 17 13 13 12 11 12 13 17 20 25 18 15 22 30 29 26 22 22 29
65 69 73 80 67 65 60 52 51 45 27 19 14 14 11 11 12 14 11 10 9 16 10 12 13 13 13 12 13 12 11 11 11 12 12 11 20 15 20 28 36 26 31 32 37
72 85 70 72 71 65 65 57 60 52 33 30 21 15 12 11 11 12 14 12 10 9 10 12 14 12 11 11 16 13 22 25 25 16 16 15 18 47 34 37 39 33 34 39 34
80 82 80 72 79 69 70 67 64 60 53 31 22 22 24 13 9 10 12 12 10 11 14 13 16 16 14 13 15 19 28 44 46 47 40 50 48 53 51 48 45 36 42 42 42

GFSSW_850_rhum_285.txt.gz
RH
37 32 29 28 26 23 22 18 16 12 10 8 6 5 4 4 5 9 16 20 20 17 17 23 26 28 33 35 36 35 36 41 37 35 41 42 42 45 48 49 53 58 56 52 43
36 35 31 29 28 26 23 20 16 12 10 8 6 5 4 3 5 10 15 19 20 19 15 19 19 28 32 33 36 34 36 35 32 32 37 39 39 44 44 46 61 66 55 48 51
37 35 33 30 28 26 24 21 16 13 11 8 6 5 4 3 5 12 16 17 20 20 16 19 23 29 27 28 33 36 36 32 34 33 36 40 42 43 40 43 51 56 65 62 58
39 36 33 31 28 26 24 21 17 13 11 8 6 5 4 3 11 10 14 16 19 16 16 20 22 26 27 27 32 34 34 34 35 38 38 40 41 40 39 38 46 54 54 62 61
39 36 34 32 29 26 23 20 17 13 11 8 6 5 4 3 8 14 13 16 19 17 18 20 23 26 26 28 30 31 32 36 36 36 37 41 41 39 43 46 53 61 55 60 68
38 37 33 31 29 26 23 19 15 12 10 7 7 6 4 4 10 13 13 17 18 17 18 18 22 24 27 29 30 35 34 36 38 37 38 37 42 39 47 52 58 62 61 62 61
39 37 34 31 29 25 22 18 13 11 8 8 7 6 5 3 12 13 13 16 17 17 19 17 22 22 26 30 36 34 33 33 37 39 38 37 44 38 47 52 55 58 60 61 58
39 37 34 31 29 24 21 16 12 10 10 8 7 6 3 5 14 13 14 16 15 17 17 21 18 22 31 35 30 30 32 36 34 36 39 35 43 43 48 51 53 56 58 60 64
37 36 34 31 28 23 21 27 19 15 10 8 7 6 4 4 12 13 13 14 13 16 16 16 18 30 30 28 29 31 31 36 32 35 36 35 43 41 46 47 50 53 58 58 59
36 34 33 31 28 22 26 30 21 17 10 10 8 14 7 11 10 11 11 10 12 16 14 15 24 23 26 23 30 27 32 36 36 39 35 40 38 39 45 43 45 49 50 55 54
34 32 32 30 27 25 31 34 30 26 22 13 7 12 12 12 12 12 12 11 14 14 15 21 18 19 20 24 27 28 30 31 31 35 35 36 40 41 41 43 42 47 46 48 49
36 30 29 30 26 29 34 33 33 34 33 18 17 13 10 13 12 12 12 11 12 15 14 16 19 18 23 27 27 29 30 28 31 36 33 44 38 41 43 41 39 40 43 45 46
40 30 27 28 25 27 32 30 30 34 34 20 18 13 10 11 11 11 11 10 11 13 13 17 17 18 23 28 27 26 24 30 33 32 38 33 44 47 42 43 42 42 38 37 38
43 33 27 26 25 24 35 28 29 32 20 15 18 12 10 10 10 11 10 9 10 12 12 14 13 15 18 20 23 21 26 30 31 29 32 36 28 40 43 43 40 38 40 39 36
40 33 30 28 27 24 28 26 29 27 10 10 13 11 9 9 10 10 10 9 11 12 12 15 14 15 15 14 22 20 25 28 32 32 32 33 34 29 43 46 41 38 38 38 39
29 31 32 32 25 24 27 28 26 22 17 13 12 12 10 7 8 10 9 9 11 10 10 12 11 11 10 19 21 25 22 25 29 29 26 30 34 25 27 28 29 31 34 35 36
23 30 32 31 24 23 25 29 22 24 14 15 12 11 9 9 8 9 10 10 12 14 14 11 10 9 13 13 23 22 21 26 26 23 23 34 33 23 21 24 25 24 28 30 34
22 31 31 25 18 22 25 23 27 15 16 14 9 10 9 8 8 10 11 11 12 11 12 12 14 11 17 15 19 24 21 25 30 26 25 34 24 21 22 23 26 28 28 31 30
31 30 27 19 20 23 31 25 19 20 19 16 9 11 10 8 8 10 11 10 10 10 12 14 15 12 19 21 19 24 26 20 27 36 29 25 24 21 22 24 24 26 29 27 29
36 29 28 39 26 25 28 25 25 24 20 16 12 11 10 9 9 10 12 11 10 10 10 13 16 11 13 14 16 19 20 23 25 27 20 18 25 17 20 22 24 25 26 30 32
35 37 45 40 30 34 29 26 26 24 24 16 14 13 10 9 9 10 11 11 9 10 10 11 11 12 10 14 14 20 20 23 22 23 20 16 12 23 23 21 20 21 24 28 30
32 42 49 46 36 49 32 31 27 22 22 18 16 16 10 10 10 11 11 11 10 10 10 10 10 13 10 10 13 16 17 16 20 27 29 23 11 17 20 19 26 24 25 27 29
52 52 53 49 34 38 40 31 28 26 25 22 16 14 13 12 11 10 10 8 11 10 11 10 11 13 11 10 11 10 15 15 16 18 30 16 10 15 22 26 25 24 27 26 30
57 46 53 47 51 39 41 41 35 36 31 29 21 16 14 13 13 13 10 9 11 9 10 9 10 11 12 12 12 13 12 15 11 14 24 18 12 12 30 33 30 34 32 33 29
67 73 80 56 56 54 48 48 46 42 44 39 20 16 19 14 14 14 13 11 12 21 14 8 10 13 11 11 11 10 11 13 12 12 11 12 14 32 42 45 44 43 39 40 44
85 81 76 68 77 62 64 56 52 52 51 36 28 40 28 23 20 19 15 14 13 21 13 10 13 14 12 11 12 18 17 11 11 12 18 16 37 44 56 52 45 47 45 45 47
85 82 87 71 69 61 65 65 61 58 53 52 50 47 37 26 41 33 16 13 13 14 13 12 15 16 14 13 18 20 26 23 32 20 23 26 38 48 51 60 69 62 62 67 70

GFSSW_850_rhum_288.txt.gz
RH
34 30 30 28 26 24 22 18 15 12 11 8 7 5 4 4 8 13 14 15 19 17 16 25 30 37 36 28 30 28 24 26 26 25 35 34 32 38 37 38 42 44 36 44 59
37 34 31 29 27 25 22 19 16 13 11 8 7 5 4 4 6 11 15 19 20 18 23 26 22 31 23 24 26 23 22 26 24 23 27 32 32 36 35 37 44 45 46 51 56
38 35 33 30 28 26 23 19 17 13 11 8 6 5 4 4 8 12 17 19 20 19 16 18 20 25 20 20 24 25 26 24 25 24 26 30 32 32 31 31 37 42 47 50 52
39 37 34 32 29 26 23 20 16 13 10 8 6 5 4 3 15 11 16 18 18 19 16 19 20 20 18 20 24 25 27 26 28 28 28 29 32 30 31 29 34 39 45 49 50
40 37 35 32 29 26 23 19 15 12 10 8 6 5 4 6 8 11 15 17 18 17 15 18 19 19 18 20 22 24 27 28 29 28 28 31 31 29 34 33 37 41 45 47 46
39 38 35 33 30 26 23 18 14 10 9 8 6 5 7 4 5 13 14 16 17 15 17 16 18 18 18 20 22 25 27 29 29 29 31 28 31 30 36 36 39 42 43 45 46
39 38 36 33 30 26 22 16 13 10 9 7 6 5 13 3 5 13 13 13 18 15 16 16 20 18 18 22 25 25 27 27 29 30 29 29 34 30 34 37 38 40 41 42 46
39 37 35 33 30 26 22 16 15 11 9 8 6 6 7 2 12 13 13 15 17 17 19 19 19 20 20 24 23 21 21 29 30 28 31 29 36 32 34 35 36 35 38 41 45
37 36 34 32 30 25 21 27 23 17 12 7 8 14 3 5 13 12 13 14 14 16 18 17 20 18 21 18 19 19 22 25 30 27 29 29 31 30 34 35 34 34 37 38 44
33 34 32 31 30 24 25 30 23 19 9 8 8 19 7 9 12 13 14 12 13 15 16 16 15 14 15 14 24 20 20 24 25 28 27 30 29 30 32 33 34 35 36 38 38
32 32 29 29 29 24 31 32 33 29 24 9 6 9 11 13 12 12 12 12 13 14 14 14 14 16 15 16 17 19 19 20 24 25 26 26 26 28 30 31 32 34 35 39 39
37 34 27 28 28 25 33 32 33 36 21 16 18 17 16 15 11 11 11 11 13 14 12 14 16 14 13 15 16 17 17 21 24 24 26 27 27 26 30 30 30 32 33 36 37
43 37 26 26 26 28 31 36 27 34 26 16 14 10 11 13 10 10 11 10 12 13 13 14 13 13 14 15 14 14 17 20 23 23 25 22 32 33 30 31 31 31 30 31 33
42 37 29 24 26 27 35 35 26 31 16 11 11 8 12 12 10 10 11 10 11 12 11 12 13 14 14 14 12 15 17 20 20 18 20 20 23 29 31 32 31 31 31 30 29
34 35 31 28 26 31 36 28 30 34 10 6 8 12 10 10 9 10 10 10 11 11 11 12 12 13 14 12 11 16 17 18 19 17 18 20 15 25 29 32 28 28 27 26 27
29 27 28 28 25 26 27 27 34 20 10 8 8 9 9 9 8 9 10 9 9 10 10 10 10 11 10 12 12 14 17 17 15 15 15 20 19 15 18 18 20 22 24 26 25
23 22 26 29 34 26 24 35 18 13 9 10 8 7 7 8 7 7 9 9 10 14 13 11 11 9 9 11 14 16 14 15 16 14 16 17 17 16 14 16 16 17 21 23 25
20 23 28 26 25 23 32 24 18 8 8 8 7 7 7 7 7 7 7 8 7 8 9 12 14 10 9 11 12 15 13 15 20 16 14 19 16 16 15 17 18 19 20 23 23
28 34 32 26 19 19 31 23 12 9 12 9 7 8 8 7 7 8 7 6 7 7 9 10 11 9 10 12 12 17 16 12 13 12 12 11 12 13 14 15 15 16 19 19 22
40 48 39 24 25 30 24 19 13 15 13 11 7 7 9 8 8 8 8 6 7 6 6 8 13 10 13 14 14 15 14 16 14 17 13 10 11 14 13 15 16 16 18 19 22
42 34 48 41 31 30 21 14 13 15 15 11 8 8 7 7 8 8 8 6 6 7 7 9 12 12 13 16 14 16 14 14 12 13 13 11 12 12 18 16 15 14 17 19 22
54 28 51 35 28 17 15 16 19 13 13 10 11 8 7 6 7 7 7 7 6 5 8 8 11 13 11 8 9 10 11 11 15 20 12 10 12 12 16 15 16 16 19 21 28
46 43 48 50 22 19 18 16 15 14 12 11 11 10 9 7 8 7 7 6 7 6 8 8 10 14 12 8 8 10 12 11 10 9 14 12 11 12 16 17 20 18 22 26 28
58 34 41 39 35 17 17 15 15 21 17 16 13 10 10 9 7 8 8 7 8 6 8 10 10 12 13 10 9 12 12 11 10 11 12 9 8 8 18 21 24 25 24 26 31
54 45 55 33 29 22 18 18 16 21 21 22 15 12 13 9 8 9 7 8 8 11 8 8 12 11 10 8 8 10 9 8 10 8 9 9 8 15 27 28 31 28 29 30 32
56 55 52 44 46 34 44 26 21 23 24 18 17 22 20 12 12 11 8 8 9 12 9 6 11 10 12 8 7 8 8 8 8 8 9 8 13 27 34 32 31 34 38 42 43
78 74 67 52 38 32 28 33 31 34 31 32 32 27 20 19 28 27 22 11 9 10 8 7 8 12 14 9 9 12 10 8 9 8 8 11 18 28 34 37 38 41 46 49 52

GFSSW_850_rhum_291.txt.gz
RH
36 33 31 28 26 25 21 18 13 10 8 7 6 5 4 4 7 12 16 15 19 17 20 37 32 28 28 21 21 37 22 20 20 23 27 25 26 27 27 29 32 28 31 38 43
38 35 32 30 27 25 23 18 14 10 8 7 6 5 4 4 7 15 13 16 20 18 28 25 20 23 22 18 18 24 18 22 18 18 23 24 26 26 26 29 31 33 36 39 42
39 37 34 32 28 26 23 20 15 11 8 7 6 5 4 4 11 15 15 18 20 19 23 14 16 20 18 16 17 17 21 19 19 20 20 23 25 24 22 27 29 33 36 39 40
40 37 35 33 30 26 23 20 15 11 8 7 6 4 4 4 16 15 16 19 19 19 19 15 16 17 15 17 17 20 19 20 22 22 22 22 25 23 23 25 29 32 34 37 38
40 38 36 33 31 26 22 19 15 11 8 7 6 4 4 13 12 11 17 18 18 18 15 15 16 15 15 15 17 19 20 21 22 22 23 24 22 25 24 26 29 32 33 35 34
41 38 36 33 31 27 23 18 14 10 8 7 6 5 6 9 8 12 17 18 16 16 14 14 15 15 15 16 18 20 21 22 23 23 24 22 24 24 25 27 30 32 33 34 34
39 38 36 33 31 27 22 18 14 11 8 7 6 5 17 7 9 13 17 18 14 15 14 14 15 15 15 16 18 20 23 22 22 24 23 23 27 25 27 26 29 31 31 33 34
31 35 34 33 31 27 23 18 20 15 9 7 6 6 10 5 6 12 13 14 14 15 15 15 15 15 15 17 17 17 18 26 22 22 23 36 37 26 27 26 28 29 31 34 36
24 27 31 31 30 27 22 18 25 18 11 8 11 16 7 4 4 11 12 13 15 14 15 17 16 14 15 61 26 25 20 21 26 21 22 25 30 26 26 26 28 28 31 32 37
40 23 26 28 29 26 21 25 25 18 10 7 17 18 8 4 5 10 12 13 14 14 15 14 13 13 12 37 25 16 18 18 21 21 22 25 25 25 26 25 27 26 29 31 33
50 28 22 25 27 26 22 38 34 32 28 7 6 6 4 5 10 11 12 12 13 13 13 11 12 23 12 12 12 13 17 16 17 18 21 21 22 26 25 25 27 27 28 30 30
48 38 22 22 25 26 28 33 27 28 19 9 10 5 9 9 9 10 12 12 12 13 11 11 14 12 11 12 12 12 15 17 17 17 20 20 21 22 24 24 25 27 28 30 32
40 39 25 22 24 23 31 31 29 28 19 9 7 7 7 10 8 9 11 11 11 12 11 12 12 11 11 11 12 11 13 15 17 19 16 19 24 24 23 24 24 25 26 27 29
31 34 30 21 24 36 27 34 29 30 16 8 7 6 6 8 7 8 10 10 9 11 10 11 10 11 12 11 10 20 11 13 14 15 17 15 25 27 25 25 24 24 24 24 26
28 28 32 28 23 28 30 30 29 29 12 5 5 4 6 8 7 8 8 9 9 10 10 11 12 12 12 11 9 12 10 12 13 14 11 14 13 19 22 23 22 22 21 21 22
26 28 29 34 30 24 33 30 30 22 9 5 5 5 5 7 7 8 8 9 9 9 9 10 9 10 10 10 10 9 10 11 11 15 13 13 12 19 17 16 16 16 19 19 19
25 25 25 26 32 34 32 28 24 14 5 6 6 5 5 7 7 7 8 9 9 12 12 11 10 9 9 10 9 9 14 30 29 13 14 11 14 12 11 11 12 14 16 17 17
24 21 22 22 30 36 31 24 27 8 6 5 5 4 6 6 7 7 8 8 7 8 10 13 13 10 9 10 11 10 12 18 23 17 12 12 17 14 10 11 12 13 13 14 14
24 35 36 29 20 41 29 27 19 6 5 5 4 6 5 5 6 6 7 7 6 6 9 10 11 8 8 9 10 11 13 8 12 9 11 11 12 11 11 11 11 11 12 13 13
32 41 30 29 37 33 23 25 10 9 7 6 6 5 6 6 6 6 6 6 5 5 5 7 11 7 8 10 10 13 24 16 24 14 13 11 14 14 13 12 11 11 12 13 13
42 34 25 34 37 26 23 19 11 10 11 8 6 5 5 6 6 6 6 4 4 5 6 6 8 10 10 13 12 12 12 17 11 9 11 11 14 11 11 10 11 11 12 13 15
49 22 40 32 28 16 18 14 10 9 10 8 8 5 5 6 6 6 6 5 4 4 7 6 7 12 11 10 10 8 9 9 21 40 9 10 12 8 9 9 9 10 12 16 17
45 29 39 32 20 13 12 12 10 10 9 9 8 6 4 6 8 6 6 4 4 5 6 7 10 13 11 10 9 8 8 8 9 14 11 11 12 9 10 13 14 13 17 20 22
49 25 29 30 19 16 12 13 13 11 9 10 8 7 6 6 5 7 6 5 6 4 5 8 8 10 12 10 8 10 9 8 8 9 10 8 10 11 11 12 15 17 18 20 23
44 30 31 22 18 16 11 12 11 14 13 12 12 8 8 8 6 6 6 6 6 8 6 7 10 9 10 8 7 8 9 9 9 9 8 8 8 10 14 15 18 20 22 24 27
47 39 34 29 24 16 25 12 9 11 11 13 12 9 8 7 6 8 6 7 8 6 6 7 12 10 11 8 7 8 8 7 7 7 7 7 11 14 19 20 21 26 33 37 43
52 48 50 30 24 23 18 17 12 11 15 18 16 16 12 17 19 16 9 7 6 8 7 7 9 11 14 9 8 10 8 7 7 7 6 8 12 19 22 25 28 33 38 43 47